{"data":{"norad_id":65804,"intl_designator":"2025-218P","name":"STARLINK-35266","alt_names":[],"object_type":"PAYLOAD","status":"ACTIVE","operator":null,"country":"US","launch_date":"2025-09-26","launch_site_code":"AFWTR","launch_vehicle":null,"mission":null,"orbit_class":"UNKNOWN","rcs_meters":null,"size_class":null,"mass_kg":null,"dimensions":null,"purposes":["comms"],"wikipedia_slug":null,"has_3d_model":false,"image_url":null,"decayed_at":null,"tle_current":{"epoch":"2026-09-20T14:01:33.551040Z","epoch_age_seconds":98813,"freshness":"FRESH","line1":"1 65804U 25218P   26263.58441610  .00008691  00000+0  27136-3 0  9994","line2":"2 65804  97.2842 120.9135 0001803  94.4227 265.7222 15.33427306 54344","mean_motion":15.33427306,"eccentricity":0.0001803,"inclination_deg":97.2842,"raan_deg":120.9135,"arg_perigee_deg":94.4227,"mean_anomaly_deg":265.7222,"bstar":0.00027136,"rev_number":5434,"period_min":93.907288227199,"perigee_km":464.36189485214,"apogee_km":466.82974490699,"semimajor_km":6843.7328198796,"source":"CELESTRAK","updated_at":"2026-09-21T09:00:35.716063Z"}}}